Location: Nasgenstadt
(48.2786°N, 9.7553°E)
Time: 15:30:48
(UTC+02:00)

ISS - Pass Details

Date: 19 May 2021
Orbit: 419 x 422 km, 51.6° (Epoch: 25 June)

Event Time Altitude Azimuth Distance (km) Brightness Sun altitude
Rises 00:21:10 0° 283° (WNW) 2,373 0.4 -20.8°
Reaches altitude 10° 00:23:20 10° 289° (WNW) 1,508 -0.5 -20.9°
Maximum altitude 00:26:37 46° 5° (N) 577 -2.7 -21.0°
Enters shadow 00:28:39 20° 71° (ENE) 1,042 -1.7 -21.1°
